Content
SEND FEEDBACK

Daily
Averages
Monthly
Summary
United States of America

BEDFORD PARK, ILLINOIS


Home > North America > United States > Illinois
Elevation: 623 feet     Latitude: 41 46N     Longitude: 087 45W

WEATHER
 
SELECT A DAY
Number of Records: 191,676;   Date Range: 1/1/95 - 9/29/14
 
SHARE

PRINT THIS DATA

[ ← Previous Day ]
WEATHER ALMANAC - FEBRUARY 14, 2013
[ Next Day → ]
[ °C ]   °F
Weather ElementAverageHighLow
Temperature37.4 °F39.9 °F (11:51 am)33.1 °F (10:51 pm)
Dewpoint26.2 °F30.2 °F (2:51 am)18 °F (6:51 pm)
Humidity64.5 %76 % (1:51 am)48 % (5:51 pm)
Barometer29.80 in30.00 in (11:51 pm)29.65 in (5:51 am)
Wind Speed13.5 mph21.9 mph (11:51 am)
Wind Gust33.4 mph (2:49 pm)
Weather ElementAverage
Visibility10 mi
Wind DirectionWSW (253.1 °)

Weather ElementTotal
Precipitation---
Heating Degree Days28.5 (Base 65)
Averaged from 26 records on February 14, 2013
WEATHER CONDITIONS BREAKOUT
WIND DIRECTION BREAKOUT
WEATHER BY HOUR - FEBRUARY 14, 2013
[ °C ]   °F
Local TimeTemperatureDewpointHumidityBarometerVisibilityWind DirectionWind SpeedGust SpeedPrecipitationEventsConditions
1:51 AM37.0 °F30.0 °F76 %29.74 in10.0 miSouth (180°)6.9 mphOvercast
2:51 AM37.4 °F30.2 °F75 %29.70 in10.0 miSouth (180°)8.1 mphOvercast
3:51 AM37.9 °F30.0 °F73 %29.70 in10.0 miSouth (190°)8.1 mphOvercast
4:51 AM37.9 °F30.0 °F73 %29.68 in10.0 miSouth (170°)10.4 mphOvercast
5:51 AM37.4 °F30.2 °F75 %29.65 in10.0 miSSW (200°)10.4 mphOvercast
6:51 AM37.0 °F30.0 °F76 %29.68 in10.0 miSSW (210°)13.8 mph21.9 mphPartly Cloudy
7:51 AM37.0 °F30.0 °F76 %29.70 in10.0 miWSW (240°)11.5 mph19.6 mphScattered Clouds
8:51 AM39.0 °F30.0 °F70 %29.70 in10.0 miWSW (250°)18.4 mph23.0 mphMostly Cloudy
9:51 AM39.0 °F30.0 °F70 %29.72 in10.0 miWSW (240°)19.6 mph28.8 mphOvercast
10:08 AM39.2 °F28.4 °F65 %29.70 in10.0 miWSW (250°)17.3 mph27.6 mphOvercast
10:51 AM37.4 °F28.4 °F70 %29.70 in10.0 miWSW (250°)17.3 mph25.3 mphOvercast
11:51 AM39.9 °F28.9 °F65 %29.74 in10.0 miWest (260°)21.9 mph26.5 mphOvercast
12:25 PM39.2 °F28.4 °F65 %29.72 in10.0 miWSW (250°)16.1 mph23.0 mphOvercast
12:51 PM39.0 °F28.9 °F67 %29.76 in10.0 miWest (260°)16.1 mph25.3 mphOvercast
1:51 PM37.9 °F28.9 °F70 %29.78 in10.0 miWest (280°)20.7 mph26.5 mphOvercast
2:49 PM39.2 °F24.8 °F56 %29.80 in10.0 miWNW (300°)19.6 mph33.4 mphOvercast
2:51 PM39.0 °F26.1 °F60 %29.83 in10.0 miWNW (290°)16.1 mph33.4 mphOvercast
3:51 PM39.0 °F26.1 °F60 %29.86 in10.0 miWest (280°)13.8 mphMostly Cloudy
4:51 PM37.9 °F21.9 °F53 %29.91 in10.0 miWest (280°)13.8 mph24.2 mphOvercast
5:51 PM37.0 °F19.0 °F48 %29.94 in10.0 miWNW (290°)12.7 mph26.5 mphOvercast
6:51 PM36.0 °F18.0 °F48 %29.96 in10.0 miWNW (290°)20.7 mph27.6 mphOvercast
7:51 PM36.0 °F19.9 °F52 %29.98 in10.0 miWNW (290°)13.8 mphOvercast
8:51 PM35.1 °F19.9 °F54 %29.98 in10.0 miWNW (300°)10.4 mphScattered Clouds
9:51 PM34.0 °F19.0 °F54 %29.99 in10.0 miWest (280°)4.6 mphMostly Cloudy
10:51 PM33.1 °F21.0 °F61 %29.99 in10.0 miWNW (290°)4.6 mphOvercast
11:51 PM33.1 °F21.9 °F64 %30.00 in10.0 miWest (280°)4.6 mphOvercast
Hourly data recorded from KMDW, located miles away from Bedford Park, Illinois







STORIES FROM OUR PARTNERS